When you browse on this site, cookies collect data to enhance your experience and personalize the content and advertising you see.
Visit our Privacy Policy to learn more. By continuing to use the site, you agree to this use of cookies and data.

Stündliche Wetter Caxambu

Heute, 13 Juli, Montag

Zeit Temperatur Niederschläge Wind Luftdruck Luftfeuchtigkeit
00:00 +14°C° 0 mm 0 m/S 685 mmHg 84%
01:00 +14°C° 0 mm 0 m/S 685 mmHg 85%
02:00 +14°C° 0 mm 0 m/S 685 mmHg 86%
03:00 +14°C° 0 mm 0 m/S 684 mmHg 86%
04:00 +13°C° 0 mm 0 m/S 684 mmHg 87%
05:00 +13°C° 0 mm 0 m/S 684 mmHg 87%
06:00 +13°C° 0 mm 0 m/S 684 mmHg 87%
07:00 +15°C° 0 mm 0 m/S 685 mmHg 80%
08:00 +17°C° 0 mm 0 m/S 686 mmHg 73%
09:00 +19°C° 0 mm 0 m/S 687 mmHg 67%
10:00 +23°C° 0 mm 1 m/S 687 mmHg 61%
11:00 +25°C° 0 mm 1 m/S 687 mmHg 56%
12:00 +26°C° 0 mm 1 m/S 687 mmHg 50%
13:00 +26°C° 0 mm 1 m/S 687 mmHg 50%
14:00 +27°C° 0 mm 1 m/S 686 mmHg 49%
15:00 +27°C° 0 mm 1 m/S 686 mmHg 48%
16:00 +25°C° 0 mm 1 m/S 686 mmHg 55%
17:00 +22°C° 0 mm 1 m/S 685 mmHg 63%
18:00 +18°C° 0 mm 0 m/S 685 mmHg 71%
19:00 +18°C° 0 mm 0 m/S 685 mmHg 72%
20:00 +17°C° 0 mm 0 m/S 686 mmHg 74%
21:00 +16°C° 0 mm 0 m/S 686 mmHg 75%
22:00 +16°C° 0 mm 0 m/S 686 mmHg 77%
23:00 +16°C° 0 mm 0 m/S 686 mmHg 78%

Morgen, 14 Juli, Dienstag

Zeit Temperatur Niederschläge Wind Luftdruck Luftfeuchtigkeit
00:00 +15°C° 0 mm 0 m/S 686 mmHg 80%
01:00 +15°C° 0 mm 0 m/S 685 mmHg 81%
02:00 +15°C° 0 mm 0 m/S 685 mmHg 82%
03:00 +14°C° 0 mm 0 m/S 685 mmHg 83%
04:00 +14°C° 0 mm 0 m/S 685 mmHg 84%
05:00 +14°C° 0 mm 0 m/S 685 mmHg 85%
06:00 +14°C° 0 mm 0 m/S 685 mmHg 86%
07:00 +16°C° 0 mm 0 m/S 686 mmHg 79%
08:00 +18°C° 0 mm 0 m/S 687 mmHg 72%
09:00 +20°C° 0 mm 0 m/S 687 mmHg 65%
10:00 +23°C° 0 mm 1 m/S 688 mmHg 60%
11:00 +25°C° 0 mm 1 m/S 688 mmHg 56%
12:00 +26°C° 0 mm 1 m/S 688 mmHg 51%
13:00 +26°C° 0 mm 2 m/S 687 mmHg 54%
14:00 +25°C° 0 mm 2 m/S 686 mmHg 57%
15:00 +25°C° 0 mm 2 m/S 686 mmHg 60%
16:00 +23°C° 0 mm 1 m/S 686 mmHg 66%
17:00 +21°C° 0 mm 1 m/S 686 mmHg 72%
18:00 +20°C° 0 mm 1 m/S 686 mmHg 78%
19:00 +19°C° 0 mm 1 m/S 686 mmHg 82%
20:00 +18°C° 0 mm 1 m/S 686 mmHg 85%
21:00 +18°C° 0 mm 1 m/S 686 mmHg 89%
22:00 +18°C° 0 mm 1 m/S 687 mmHg 91%
23:00 +16°C° 0 mm 1 m/S 687 mmHg 92%

übermorgen, 15 Juli, Mittwoch

Zeit Temperatur Niederschläge Wind Luftdruck Luftfeuchtigkeit
00:00 +16°C° 0 mm 1 m/S 687 mmHg 94%
01:00 +16°C° 0 mm 1 m/S 687 mmHg 94%
02:00 +16°C° 0 mm 1 m/S 686 mmHg 95%
03:00 +16°C° 0 mm 1 m/S 686 mmHg 95%
04:00 +16°C° 0 mm 1 m/S 686 mmHg 95%
05:00 +15°C° 0 mm 1 m/S 686 mmHg 95%
06:00 +15°C° 0 mm 1 m/S 687 mmHg 95%
07:00 +18°C° 0 mm 1 m/S 687 mmHg 90%
08:00 +19°C° 0 mm 1 m/S 688 mmHg 85%
09:00 +21°C° 0 mm 1 m/S 689 mmHg 80%
10:00 +22°C° 0.1 mm 1 m/S 689 mmHg 75%
11:00 +23°C° 0.1 mm 1 m/S 689 mmHg 69%
12:00 +25°C° 0.1 mm 1 m/S 689 mmHg 64%
13:00 +24°C° 0.4 mm 1 m/S 688 mmHg 67%
14:00 +24°C° 0.4 mm 2 m/S 688 mmHg 70%
15:00 +23°C° 0.4 mm 2 m/S 687 mmHg 72%
16:00 +21°C° 0.5 mm 2 m/S 687 mmHg 78%
17:00 +19°C° 0.5 mm 2 m/S 687 mmHg 84%
18:00 +18°C° 0.5 mm 2 m/S 687 mmHg 89%
19:00 +17°C° 0 mm 2 m/S 687 mmHg 91%
20:00 +16°C° 0 mm 2 m/S 688 mmHg 92%
21:00 +16°C° 0 mm 2 m/S 688 mmHg 94%
22:00 +15°C° 0 mm 2 m/S 688 mmHg 94%
23:00 +15°C° 0 mm 1 m/S 688 mmHg 94%

16 Juli, Donnerstag

Zeit Temperatur Niederschläge Wind Luftdruck Luftfeuchtigkeit
00:00 +15°C° 0 mm 1 m/S 688 mmHg 95%
01:00 +14°C° 0 mm 1 m/S 688 mmHg 95%
02:00 +14°C° 0 mm 1 m/S 687 mmHg 95%
03:00 +14°C° 0 mm 1 m/S 687 mmHg 95%
04:00 +14°C° 0 mm 1 m/S 687 mmHg 94%
05:00 +14°C° 0 mm 1 m/S 687 mmHg 94%
06:00 +14°C° 0 mm 1 m/S 688 mmHg 94%
07:00 +16°C° 0 mm 1 m/S 688 mmHg 90%
08:00 +18°C° 0 mm 1 m/S 689 mmHg 85%
09:00 +19°C° 0 mm 1 m/S 689 mmHg 81%
10:00 +20°C° 0 mm 1 m/S 689 mmHg 77%
11:00 +20°C° 0 mm 2 m/S 689 mmHg 73%
12:00 +21°C° 0 mm 2 m/S 688 mmHg 70%
13:00 +21°C° 0.1 mm 2 m/S 688 mmHg 70%
14:00 +22°C° 0.1 mm 1 m/S 687 mmHg 71%
15:00 +22°C° 0.1 mm 1 m/S 686 mmHg 71%
16:00 +21°C° 0.1 mm 1 m/S 686 mmHg 76%
17:00 +20°C° 0.1 mm 1 m/S 686 mmHg 81%
18:00 +19°C° 0.1 mm 1 m/S 686 mmHg 86%
19:00 +18°C° 0.1 mm 1 m/S 686 mmHg 87%
20:00 +18°C° 0.1 mm 1 m/S 687 mmHg 88%
21:00 +16°C° 0.1 mm 1 m/S 687 mmHg 89%
22:00 +16°C° 0.6 mm 1 m/S 687 mmHg 89%
23:00 +16°C° 0.6 mm 1 m/S 687 mmHg 90%

17 Juli, Freitag

Zeit Temperatur Niederschläge Wind Luftdruck Luftfeuchtigkeit
00:00 +16°C° 0.6 mm 1 m/S 687 mmHg 91%
01:00 +16°C° 0.1 mm 1 m/S 687 mmHg 90%
02:00 +18°C° 0.1 mm 1 m/S 687 mmHg 89%
03:00 +16°C° 0.1 mm 0 m/S 687 mmHg 88%
04:00 +15°C° 0 mm 0 m/S 687 mmHg 90%
05:00 +14°C° 0 mm 0 m/S 687 mmHg 91%
06:00 +14°C° 0 mm 0 m/S 687 mmHg 92%
07:00 +15°C° 0 mm 0 m/S 687 mmHg 87%
08:00 +17°C° 0 mm 0 m/S 688 mmHg 82%
09:00 +19°C° 0 mm 0 m/S 688 mmHg 77%
10:00 +22°C° 0 mm 1 m/S 688 mmHg 70%
11:00 +24°C° 0 mm 1 m/S 688 mmHg 64%
12:00 +25°C° 0 mm 1 m/S 688 mmHg 57%
13:00 +26°C° 0.1 mm 1 m/S 688 mmHg 56%
14:00 +26°C° 0.1 mm 1 m/S 688 mmHg 55%
15:00 +24°C° 0.1 mm 0 m/S 687 mmHg 54%
16:00 +24°C° 0.2 mm 1 m/S 687 mmHg 60%
17:00 +22°C° 0.2 mm 1 m/S 687 mmHg 66%
18:00 +21°C° 0.2 mm 1 m/S 687 mmHg 73%
19:00 +20°C° 0.1 mm 1 m/S 687 mmHg 75%
20:00 +20°C° 0.1 mm 1 m/S 687 mmHg 78%
21:00 +20°C° 0.1 mm 1 m/S 688 mmHg 81%
22:00 +19°C° 0.1 mm 1 m/S 688 mmHg 83%
23:00 +19°C° 0.1 mm 1 m/S 688 mmHg 85%

18 Juli, Samstag

Zeit Temperatur Niederschläge Wind Luftdruck Luftfeuchtigkeit
00:00 +19°C° 0.1 mm 1 m/S 688 mmHg 87%
01:00 +18°C° 0 mm 1 m/S 688 mmHg 87%
02:00 +18°C° 0 mm 1 m/S 688 mmHg 87%
03:00 +18°C° 0 mm 1 m/S 688 mmHg 88%
04:00 +18°C° 0 mm 1 m/S 688 mmHg 89%
05:00 +16°C° 0 mm 1 m/S 688 mmHg 90%
06:00 +16°C° 0 mm 1 m/S 688 mmHg 91%
07:00 +18°C° 0 mm 1 m/S 688 mmHg 88%
08:00 +19°C° 0 mm 1 m/S 689 mmHg 84%
09:00 +19°C° 0 mm 2 m/S 689 mmHg 80%
10:00 +21°C° 0 mm 2 m/S 689 mmHg 72%
11:00 +23°C° 0 mm 2 m/S 689 mmHg 65%
12:00 +25°C° 0 mm 2 m/S 689 mmHg 57%
13:00 +25°C° 0 mm 2 m/S 689 mmHg 57%
14:00 +25°C° 0 mm 2 m/S 688 mmHg 57%
15:00 +25°C° 0 mm 2 m/S 688 mmHg 57%
16:00 +23°C° 0 mm 2 m/S 688 mmHg 64%
17:00 +21°C° 0 mm 2 m/S 688 mmHg 70%
18:00 +19°C° 0 mm 2 m/S 688 mmHg 77%
19:00 +18°C° 0 mm 2 m/S 688 mmHg 81%
20:00 +17°C° 0 mm 2 m/S 688 mmHg 85%
21:00 +16°C° 0 mm 2 m/S 688 mmHg 89%
22:00 +16°C° 0 mm 1 m/S 688 mmHg 91%
23:00 +15°C° 0 mm 1 m/S 688 mmHg 92%
Mehr zeigen